Skip Navigation Links weather.gov 
NOAA logo-Select to go to the NOAA homepage NDBC Title GraphicClick to go to NDBC home page   Select to go to the NWS homepage
Home About Us Contact Us
 
 
    
    Station List

 Data Access
    Mobile Access
    Classic Maps
         Recent
         DART®
    Obs Search
    Ship Obs Report
    BuoyCAMs
    TAO
    DODS
    OceanSITES
    HF Radar
    OSMC
    Dial-A-Buoy
    RSS Feeds Image indicating link to RSS feed access page
    Web Widget
    Email Access
    Web Data Guide
    Maintenance Schedule
    Station Status Report

 Program Info
    TAO
    DART®
    IOOS®

 Publications
    NDBC PEA
    NDBC FONSI
    NDBC DQC Handbook

 FAQ
 Visitor Information
 
USA.gov is the U.S. government's official web portal to all federal, state and local government web resources and services.

Hurricane Symbol Storm Special! View the latest observations near East Pacific Tropical Storm Tara.

Station CPXC1 - Cal Poly Pier, CA Image indicating link to RSS feed of recent meteorological observations for station CPXC1

Owned and maintained by California Polytechnic State University
Coastal Marine Station
35.170 N 120.741 W (35°10'12" N 120°44'27" W)

Site elevation: sea level
Air temp height: 4 m above site elevation
Anemometer height: 4 m above site elevation
Barometer elevation: 4 m above mean sea level

Search And Rescue (SAR) Data

Meteorological Observations from Nearby Stations and Ships Image indicating link to RSS feed of recent meteorological observations near station CPXC1

Regional HF Radar Surface Current Observations

Station CPXC1
Large icon indicates selected station.
yellow diamond Stations with recent data
red diamond Stations with no data in last 8 hours
     (24 hours for tsunami stations)


Conditions at CPXC1 as of
(8:02 am PDT)
1502 GMT on 10/15/2018:
     

Click on the graph icon in the table below to see a time series plot of the last five days of that observation.

5-day plot - Wind Direction Wind Direction (WDIR): NNE ( 20 deg true )
5-day plot - Wind Speed Wind Speed (WSPD): 4.1 kts
5-day plot - Wind Gust Wind Gust (GST): 5.1 kts
5-day plot - Atmospheric Pressure Atmospheric Pressure (PRES): 30.10 in
5-day plot - Air Temperature Air Temperature (ATMP): 54.1 °F
5-day plot - Dew Point Dew Point (DEWP): 51.6 °F
5-day plot - Wind Speed at 10 Meters Wind Speed at 10 meters (WSPD10M): 3.9 kts
5-day plot - Wind Speed at 10 Meters Wind Speed at 20 meters (WSPD20M): 3.9 kts
5-day plot - Wind Speed, Wind Gust and Atmospheric Pressure Combined plot of Wind Speed, Gust, and Air Pressure
Previous observations
5-day plot - Wind Direction 5-day plot - Wind Speed 5-day plot - Wind Gust 5-day plot - Wave Height 5-day plot - Dominant Wave Period 5-day plot - Average Period 5-day plot - Mean Wave Direction 5-day plot - Atmospheric Pressure 5-day plot - Pressure Tendency 5-day plot - Air Temperature 5-day plot - Water Temperature 5-day plot - Dew Point 5-day plot - Salinity 5-day plot - Visibility 5-day plot - Tide (above MLLW)
MM DD TIME
(PDT)
WDIR WSPD
kts
GST
kts
WVHT
ft
DPD
sec
APD
sec
MWD PRES
in
PTDY
in
ATMP
°F
WTMP
°F
DEWP
°F
SAL
psu
VIS
nmi
TIDE
ft
1015 7:50 amNNE 4.1 5.1----30.10- 54.0- 51.4---
1015 7:48 am N 4.1 5.1----30.10+0.05 53.8- 51.3---
1015 7:46 am N 4.1 6.0----30.10- 53.8- 51.3---
1015 7:44 amNNE 5.1 5.1----30.10- 53.6- 51.1---
1015 7:42 amNNE 5.1 6.0----30.10- 53.6- 51.1---
1015 7:40 amNNE 5.1 5.1----30.10- 53.6- 51.1---
1015 7:38 amNNE 4.1 5.1----30.10- 53.8- 51.3---
1015 7:36 amNNE 4.1 5.1----30.09- 54.0- 51.6---
1015 7:34 amNNE 2.9 4.1----30.09- 54.0- 51.4---
1015 7:32 am NE 2.9 4.1----30.09- 53.8- 51.3---
1015 7:30 amNNE 4.1 4.1----30.09- 54.0- 51.6---
1015 7:28 amNNE 4.1 5.1----30.09- 53.8- 51.3---
1015 7:26 am N 5.1 5.1----30.09- 53.6- 51.1---
1015 7:24 amNNE 5.1 6.0----30.09- 53.4- 50.9---
1015 7:22 amNNE 5.1 6.0----30.09- 53.6- 51.1---
1015 7:20 amNNE 5.1 6.0----30.09- 53.6- 51.1---
1015 7:18 amNNE 5.1 5.1----30.09- 53.4- 50.9---
1015 7:16 amNNE 5.1 5.1----30.09- 53.4- 51.1---
1015 7:14 amNNE 4.1 5.1----30.09- 53.4- 51.1---
1015 7:12 amNNE 5.1 5.1----30.09- 53.4- 51.1---
1015 7:10 amNNE 4.1 5.1----30.09- 53.4- 51.1---
1015 7:08 amNNE 5.1 7.0----30.09- 53.2- 50.9---
1015 7:06 am N 5.1 7.0----30.09- 53.2- 50.9---
1015 7:04 am N 6.0 7.0----30.09- 53.2- 50.9---
1015 7:02 amNNE 6.0 7.0----30.09- 53.2- 50.9---
1015 7:00 amNNE 6.0 6.0----30.09- 53.2- 50.9---
1015 6:58 amNNE 6.0 6.0----30.09- 53.2- 50.9---
1015 6:56 amNNE 6.0 7.0----30.09- 53.4- 51.3---
1015 6:54 amNNE 5.1 7.0----30.09- 53.2- 51.1---
1015 6:52 am NE 6.0 7.0----30.09- 52.9- 50.5---
1015 6:50 am NE 6.0 7.0----30.08- 52.7- 50.4---
1015 6:48 amENE 5.1 7.0----30.08- 52.9- 50.7---
1015 6:46 amENE 5.1 6.0----30.08- 52.9- 50.7---
1015 6:44 amENE 5.1 6.0----30.08- 53.1- 50.9---
1015 6:42 am NE 5.1 6.0----30.08- 52.9- 50.7---
1015 6:40 am NE 5.1 6.0----30.08- 52.9- 50.7---
1015 6:38 am NE 5.1 7.0----30.08- 52.9- 50.7---
1015 6:36 am NE 6.0 7.0----30.08- 52.5- 50.4---
1015 6:34 am NE 6.0 7.0----30.08- 52.7- 50.5---
1015 6:32 amNNE 6.0 7.0----30.08- 52.5- 50.4---
1015 6:30 am NE 6.0 7.0----30.07- 52.7- 50.7---
1015 6:28 amNNE 6.0 7.0----30.07- 52.7- 50.7---
1015 6:26 amNNE 7.0 7.0----30.07- 52.5- 50.5---
1015 6:24 amNNE 7.0 7.0----30.07- 52.5- 50.5---
1015 6:22 amNNE 7.0 8.9----30.07- 52.3- 50.4---
1015 6:20 amNNE 7.0 8.9----30.07- 52.3- 50.4---
1015 6:18 amNNE 7.0 8.9----30.07- 52.3- 50.4---
1015 6:16 amNNE 7.0 8.9----30.07- 52.2- 50.2---
1015 6:14 amNNE 6.0 8.0----30.07- 52.2- 50.2---
1015 6:12 am N 6.0 8.0----30.07- 52.3- 50.4---
1015 6:10 am N 6.0 8.0----30.07- 52.0- 50.0---
1015 6:08 am N 7.0 8.0----30.07- 52.0- 50.0---
1015 6:06 amNNE 7.0 8.9----30.07- 52.0- 49.6---
1015 6:04 am N 7.0 8.9----30.07- 51.8- 49.5---
1015 6:02 amNNE 7.0 8.9----30.07- 52.2- 50.0---
1015 6:00 am N 6.0 7.0----30.07- 52.2- 50.0---
1015 5:58 am N 5.1 7.0----30.07- 52.7- 50.5---
1015 5:56 am N 2.9 5.1----30.07- 53.1- 51.1---
1015 5:54 am N 2.9 5.1----30.07- 53.1- 51.1---
1015 5:52 am N 2.9 5.1----30.07- 52.9- 50.9---
1015 5:50 am N 4.1 6.0----30.07- 52.7- 50.5---
1015 5:48 am N 4.1 7.0----30.07+0.01 52.9- 50.7---
1015 5:46 am N 5.1 6.0----30.07- 52.5- 50.4---
1015 5:44 am N 4.1 6.0----30.07- 52.7- 50.5---
1015 5:42 am N 4.1 5.1----30.06- 52.5- 50.4---
1015 5:40 am N 5.1 7.0----30.06- 52.5- 50.4---
1015 5:38 am N 5.1 7.0----30.07- 52.5- 50.4---
1015 5:36 am N 5.1 7.0----30.06- 52.3- 50.2---
1015 5:34 am N 6.0 7.0----30.06- 52.3- 50.0---
1015 5:32 am N 7.0 8.9----30.06- 52.3- 50.0---
1015 5:30 amNNE 7.0 8.9----30.06- 52.3- 50.0---
1015 5:28 am N 7.0 8.9----30.07- 52.7- 50.5---
1015 5:26 am N 5.1 7.0----30.06- 52.9- 50.5---
1015 5:24 am N 5.1 6.0----30.06- 53.1- 50.7---
1015 5:22 am N 5.1 7.0----30.06- 53.1- 50.7---
1015 5:20 am N 6.0 7.0----30.06- 52.9- 50.5---
1015 5:18 am N 6.0 7.0----30.06- 52.9- 50.5---
1015 5:16 am N 5.1 7.0----30.06- 53.1- 50.7---
1015 5:14 am N 5.1 7.0----30.06- 52.9- 50.5---
1015 5:12 am N 5.1 5.1----30.06- 53.1- 50.7---
1015 5:10 am N 5.1 6.0----30.06- 53.2- 50.9---
1015 5:08 am N 5.1 6.0----30.06- 53.2- 50.9---
1015 5:06 am N 4.1 5.1----30.06- 53.4- 51.1---
1015 5:04 am N 4.1 5.1----30.06- 53.4- 51.1---
1015 5:02 am N 4.1 5.1----30.06- 53.4- 51.1---
1015 5:00 am N 4.1 7.0----30.06- 53.4- 51.1---
1015 4:58 am N 5.1 7.0----30.05- 53.6- 51.3---
1015 4:56 am N 7.0 8.9----30.05- 53.4- 51.1---
1015 4:54 am N 7.0 8.9----30.05- 53.6- 51.3---
1015 4:52 am N 8.0 8.9----30.05- 53.6- 51.3---
1015 4:50 am N 7.0 8.9----30.05- 53.6- 51.3---
1015 4:48 am N 8.0 9.9----30.05+0.00 53.6- 51.4---
1015 4:46 amNNE 7.0 8.9----30.05- 53.4- 51.1---
1015 4:44 am N 7.0 8.9----30.05- 53.2- 50.9---
1015 4:42 am N 7.0 8.9----30.05- 53.2- 50.9---
1015 4:40 amNNE 7.0 8.9----30.05- 53.2- 50.9---
1015 4:38 amNNE 7.0 8.0----30.05- 53.2- 50.9---
1015 4:36 amNNE 7.0 7.0----30.05- 53.1- 50.7---
1015 4:34 amNNE 7.0 8.0----30.05- 53.1- 50.7---
1015 4:32 amNNE 7.0 8.9----30.05- 53.1- 50.7---
1015 4:30 am N 7.0 8.9----30.05- 53.1- 50.5---
1015 4:28 am N 7.0 8.9----30.05- 52.7- 50.2---
1015 4:26 am N 8.0 9.9----30.05- 52.9- 50.4---
1015 4:24 am N 8.0 8.9----30.05- 52.9- 50.4---
1015 4:22 am N 7.0 8.9----30.05- 53.1- 50.5---
1015 4:20 am N 6.0 8.0----30.05- 53.2- 50.7---
1015 4:18 am N 7.0 8.0----30.05- 53.2- 50.7---
1015 4:16 am N 6.0 8.0----30.05- 53.4- 50.7---
1015 4:14 am N 6.0 8.0----30.05- 53.4- 50.7---
1015 4:12 am N 5.1 7.0----30.05- 53.8- 51.3---
1015 4:10 am N 5.1 6.0----30.05- 54.1- 51.6---
1015 4:08 am N 5.1 7.0----30.05- 54.1- 51.6---
1015 4:06 am N 5.1 7.0----30.05- 54.0- 51.4---
1015 4:04 am N 5.1 7.0----30.05- 53.8- 51.3---
1015 4:02 am N 6.0 8.0----30.05- 53.8- 51.3---
1015 4:00 am N 7.0 8.0----30.05- 54.0- 51.4---
1015 3:58 am N 6.0 7.0----30.05- 54.1- 51.6---
1015 3:56 am N 5.1 7.0----30.05- 54.1- 51.6---
1015 3:54 am N 5.1 7.0----30.05- 54.1- 51.6---
1015 3:52 am N 5.1 7.0----30.05- 54.1- 51.8---
1015 3:50 am N 6.0 7.0----30.05- 54.0- 51.6---
1015 3:48 am N 6.0 7.0----30.05+0.01 54.0- 51.6---
1015 3:46 am N 5.1 7.0----30.05- 54.0- 51.6---
1015 3:44 am N 5.1 7.0----30.05- 54.0- 51.6---
1015 3:42 am N 5.1 7.0----30.05- 53.8- 51.4---
1015 3:40 am N 5.1 7.0----30.05- 53.4- 51.1---
1015 3:38 am N 5.1 7.0----30.05- 53.4- 51.1---
1015 3:36 am N 6.0 7.0----30.05- 53.2- 50.7---
1015 3:34 am N 6.0 7.0----30.05- 53.1- 50.5---
1015 3:32 am N 7.0 7.0----30.05- 53.2- 50.7---
1015 3:30 am N 6.0 7.0----30.05- 53.2- 50.7---
1015 3:28 am N 6.0 7.0----30.05- 53.2- 50.7---
1015 3:26 am N 6.0 7.0----30.05- 53.4- 50.9---
1015 3:24 am N 5.1 7.0----30.05- 53.4- 50.9---
1015 3:22 am N 5.1 6.0----30.05- 53.6- 51.1---
1015 3:20 am N 6.0 7.0----30.05- 53.2- 50.5---
1015 3:18 am N 5.1 6.0----30.05- 53.2- 50.5---
1015 3:16 am N 5.1 6.0----30.05- 53.1- 50.4---
1015 3:14 am N 6.0 7.0----30.05- 53.1- 50.4---
1015 3:12 am N 6.0 7.0----30.05- 52.9- 50.0---
1015 3:10 am N 6.0 7.0----30.06- 53.1- 50.2---
1015 3:08 am N 7.0 7.0----30.06- 53.1- 50.2---
1015 3:06 am N 6.0 7.0----30.06- 53.6- 50.9---
1015 3:04 am N 5.1 7.0----30.06- 53.6- 50.9---
1015 3:02 am N 5.1 6.0----30.06- 53.6- 50.9---
1015 3:00 am N 4.1 5.1----30.06- 53.8- 50.9---
1015 2:58 am N 4.1 5.1----30.05- 53.8- 50.9---
1015 2:56 amNNE 4.1 5.1----30.05- 53.8- 50.9---
1015 2:54 am N 4.1 5.1----30.05- 53.8- 50.9---
1015 2:52 am N 5.1 5.1----30.05- 53.8- 50.9---
1015 2:50 am N 5.1 7.0----30.05- 54.0- 51.1---
1015 2:48 am N 7.0 7.0----30.05+0.02 53.8- 50.9---
1015 2:46 am N 6.0 8.0----30.06- 54.0- 51.1---
1015 2:44 am N 6.0 7.0----30.06- 53.8- 50.9---
1015 2:42 amNNE 5.1 7.0----30.06- 53.8- 50.9---
1015 2:40 am N 5.1 7.0----30.06- 54.0- 51.1---
1015 2:38 amNNE 5.1 6.0----30.06- 54.0- 51.1---
1015 2:36 amNNE 5.1 6.0----30.06- 53.8- 50.9---
1015 2:34 amNNE 6.0 7.0----30.06- 53.8- 50.9---
1015 2:32 amNNE 6.0 7.0----30.06- 53.8- 50.9---
1015 2:30 am N 6.0 7.0----30.06- 54.0- 51.3---
1015 2:28 amNNE 6.0 7.0----30.06- 54.1- 51.3---
1015 2:26 amNNE 6.0 7.0----30.06- 54.0- 51.1---
1015 2:24 amNNE 6.0 7.0----30.06- 54.0- 51.1---
1015 2:22 amNNE 6.0 7.0----30.06- 54.0- 51.1---
1015 2:20 amNNE 6.0 7.0----30.06- 53.8- 50.9---
1015 2:18 amNNE 5.1 6.0----30.06- 54.0- 51.1---
1015 2:16 amNNE 6.0 7.0----30.06- 53.8- 50.9---
1015 2:14 amNNE 6.0 7.0----30.06- 54.0- 51.1---
1015 2:12 amNNE 6.0 7.0----30.06- 54.0- 51.1---
1015 2:10 amNNE 6.0 7.0----30.06- 53.8- 50.7---
1015 2:08 am N 5.1 7.0----30.06- 53.6- 50.5---
1015 2:06 amNNE 6.0 7.0----30.06- 53.8- 50.7---
1015 2:04 amNNE 6.0 7.0----30.06- 53.8- 50.5---
1015 2:02 amNNE 6.0 7.0----30.06- 53.8- 50.5---
1015 2:00 amNNE 6.0 7.0----30.06- 54.0- 50.7---
1015 1:58 amNNE 6.0 7.0----30.06- 54.1- 50.9---
1015 1:56 am N 6.0 7.0----30.06- 54.3- 51.1---
1015 1:54 amNNE 6.0 7.0----30.06- 54.5- 51.3---
1015 1:52 amNNE 6.0 7.0----30.06- 54.5- 51.3---
1015 1:50 amNNE 6.0 7.0----30.06- 54.5- 51.3---
1015 1:48 amNNE 6.0 7.0----30.06+0.04 54.3- 51.1---
1015 1:46 amNNE 6.0 7.0----30.06- 54.3- 51.1---
1015 1:44 amNNE 6.0 7.0----30.06- 54.3- 51.1---
1015 1:42 am N 7.0 8.9----30.06- 54.3- 51.1---
1015 1:40 amNNE 7.0 8.0----30.06- 54.5- 51.3---
1015 1:38 am N 7.0 8.0----30.06- 54.3- 51.1---
1015 1:36 am N 5.1 7.0----30.06- 54.1- 50.7---
1015 1:34 amNNE 5.1 7.0----30.06- 54.3- 50.9---
1015 1:32 amNNE 6.0 7.0----30.06- 54.3- 50.9---
1015 1:30 amNNE 6.0 7.0----30.06- 54.3- 50.9---
1015 1:28 amNNE 6.0 7.0----30.05- 54.5- 51.1---
1015 1:26 amNNE 6.0 7.0----30.05- 54.5- 51.1---
1015 1:24 am N 6.0 7.0----30.05- 54.5- 51.1---
1015 1:22 amNNE 5.1 7.0----30.05- 54.9- 51.4---
1015 1:20 am N 5.1 7.0----30.05- 55.0- 51.6---
1015 1:18 am N 6.0 7.0----30.05- 54.9- 51.4---
1015 1:16 amNNE 6.0 7.0----30.05- 54.9- 51.4---
1015 1:14 amNNE 6.0 7.0----30.05- 54.9- 51.4---
1015 1:12 amNNE 6.0 7.0----30.05- 54.9- 51.3---
1015 1:10 amNNE 5.1 7.0----30.05- 55.0- 51.4---
1015 1:08 amNNE 5.1 7.0----30.05- 54.9- 51.3---
1015 1:06 amNNE 6.0 7.0----30.05- 55.2- 51.6---
1015 1:04 amNNE 6.0 7.0----30.05- 55.2- 51.6---
1015 1:02 am N 6.0 7.0----30.05- 55.4- 51.8---
1015 1:00 am N 6.0 7.0----30.05- 55.2- 51.6---
101512:58 am N 5.1 7.0----30.04- 55.6- 52.0---
101512:56 am N 5.1 7.0----30.04- 55.6- 52.0---
101512:54 am N 6.0 8.0----30.04- 55.4- 51.8---
101512:52 am N 6.0 7.0----30.04- 55.4- 51.8---
101512:50 amNNE 5.1 7.0----30.04- 55.4- 51.8---
101512:48 amNNE 6.0 7.0----30.04+0.03 55.4- 51.8---
101512:46 amNNE 6.0 7.0----30.04- 55.2- 51.6---
101512:44 amNNE 6.0 7.0----30.04- 55.0- 51.4---
101512:42 amNNE 5.1 6.0----30.04- 55.2- 51.6---
101512:40 am N 5.1 7.0----30.04- 55.2- 51.6---
101512:38 am N 4.1 7.0----30.04- 55.4- 51.8---
101512:36 am N 4.1 6.0----30.04- 55.4- 51.8---
101512:34 am N 4.1 6.0----30.04- 55.4- 51.8---
101512:32 am N 4.1 6.0----30.04- 55.2- 51.4---
101512:30 am N 5.1 7.0----30.04- 55.2- 51.4---
101512:28 am N 4.1 6.0----30.04- 55.4- 51.6---
101512:26 am N 4.1 6.0----30.04- 55.9- 52.2---
101512:24 am N 2.9 5.1----30.04- 55.9- 52.2---
101512:22 am N 4.1 5.1----30.04- 55.8- 51.8---
101512:20 am N 2.9 5.1----30.04- 55.8- 51.6---
101512:18 am N 5.1 7.0----30.04- 55.8- 51.6---
101512:16 am N 5.1 7.0----30.04- 55.9- 52.0---
101512:14 am N 5.1 7.0----30.04- 56.1- 52.2---
101512:12 am N 5.1 6.0----30.04- 56.1- 52.2---
101512:10 am N 5.1 7.0----30.04- 56.1- 52.2---
101512:08 am N 4.1 6.0----30.04- 56.1- 52.2---
101512:06 am N 4.1 5.1----30.04- 56.3- 52.3---
101512:04 am N 4.1 5.1----30.04- 56.3- 52.3---
101512:02 am N 4.1 6.0----30.04- 55.9- 52.0---
101512:00 am N 5.1 7.0----30.04- 56.1- 52.2---
101411:58 pm N 5.1 7.0----30.04- 56.1- 52.2---
101411:56 pm N 5.1 7.0----30.03- 56.1- 52.2---
101411:54 pm N 4.1 6.0----30.03- 56.3- 52.3---
101411:52 pm N 4.1 5.1----30.03- 56.5- 52.5---
101411:50 pm N 4.1 5.1----30.03- 56.3- 52.3---
101411:48 pm N 5.1 6.0----30.03+0.03 56.3- 52.3---
101411:46 pm N 4.1 5.1----30.03- 56.3- 52.2---
101411:44 pm N 4.1 6.0----30.03- 56.1- 52.0---
101411:42 pm N 4.1 5.1----30.03- 55.9- 51.8---
101411:40 pm N 5.1 6.0----30.03- 55.9- 51.8---
101411:38 pm N 6.0 7.0----30.03- 55.9- 51.6---
101411:36 pm N 5.1 7.0----30.03- 55.9- 51.6---
101411:34 pm N 6.0 7.0----30.03- 56.1- 51.8---
101411:32 pm N 7.0 9.9----30.03- 56.1- 51.8---
101411:30 pmNNE 8.9 9.9----30.03- 56.1- 51.8---
101411:28 pmNNE 8.0 9.9----30.03- 56.1- 51.8---
101411:26 pm N 8.0 9.9----30.03- 56.1- 51.8---
101411:24 pm N 7.0 8.9----30.02- 56.1- 51.8---
101411:22 pm N 7.0 8.9----30.02- 56.1- 51.8---
101411:20 pm N 7.0 8.9----30.02- 56.1- 51.8---
101411:18 pm N 7.0 8.9----30.02- 56.1- 51.8---
101411:16 pm N 7.0 8.9----30.02- 56.1- 51.8---
101411:14 pm N 5.1 7.0----30.02- 56.1- 52.0---
101411:12 pm N 5.1 7.0----30.02- 56.1- 51.8---
101411:10 pm N 5.1 7.0----30.02- 56.3- 52.0---
101411:08 pm N 5.1 6.0----30.02- 56.1- 51.8---
101411:06 pm N 5.1 6.0----30.02- 56.1- 51.6---
101411:04 pm N 5.1 7.0----30.02- 56.3- 51.8---
101411:02 pm N 6.0 7.0----30.02- 56.5- 52.0---
101411:00 pm N 7.0 8.9----30.02- 56.3- 51.8---
101410:58 pm N 7.0 8.0----30.02- 56.3- 51.8---
101410:56 pm N 7.0 8.9----30.02- 56.3- 51.8---
101410:54 pm N 8.0 9.9----30.02- 56.3- 51.8---
101410:52 pm N 7.0 9.9----30.02- 56.3- 51.8---
101410:50 pm N 7.0 8.0----30.02- 56.3- 51.8---
101410:48 pm N 7.0 8.0----30.02+0.03 56.3- 51.6---
101410:46 pm N 7.0 8.9----30.02- 56.3- 51.6---
101410:44 pm N 6.0 8.0----30.02- 56.5- 51.8---
101410:42 pm N 5.1 7.0----30.02- 56.7- 52.0---
101410:40 pm N 6.0 7.0----30.02- 56.7- 51.8---
101410:38 pm N 4.1 6.0----30.02- 56.7- 51.8---
101410:36 pm N 4.1 5.1----30.02- 57.0- 52.0---
101410:34 pm N 4.1 6.0----30.02- 57.0- 52.2---
101410:32 pm N 2.9 5.1----30.02- 57.0- 52.2---
101410:30 pmNNW 4.1 6.0----30.02- 57.0- 52.0---
101410:28 pmNNW 5.1 5.1----30.02- 57.0- 52.2---
101410:26 pmNNW 4.1 5.1----30.02- 57.2- 52.5---
101410:24 pm N 5.1 7.0----30.02- 57.2- 52.5---
101410:22 pm N 5.1 7.0----30.02- 57.2- 52.5---
101410:20 pm N 5.1 7.0----30.02- 57.2- 52.5---
101410:18 pm N 5.1 7.0----30.02- 57.2- 52.5---
101410:16 pm N 5.1 7.0----30.02- 57.2- 52.5---
101410:14 pm N 6.0 8.0----30.02- 57.2- 52.5---
101410:12 pm N 7.0 8.9----30.02- 57.4- 52.7---
101410:10 pm N 7.0 8.9----30.02- 57.2- 52.5---
101410:08 pm N 6.0 8.9----30.02- 57.2- 52.5---
101410:06 pm N 7.0 8.9----30.02- 57.2- 52.3---
101410:04 pm N 7.0 8.9----30.02- 57.2- 52.5---
101410:02 pm N 6.0 8.9----30.02- 57.2- 52.5---
101410:00 pm N 8.0 8.9----30.02- 57.2- 52.3---
1014 9:58 pm N 7.0 9.9----30.01- 57.2- 52.3---
1014 9:56 pm N 7.0 8.9----30.01- 57.2- 52.3---
1014 9:54 pm N 6.0 8.9----30.01- 57.2- 52.2---
1014 9:52 pm N 7.0 8.9----30.01- 57.4- 52.3---
1014 9:50 pm N 6.0 8.9----30.01- 57.4- 52.5---
1014 9:48 pm N 4.1 7.0----30.01+0.05 57.6- 52.5---
1014 9:46 pm N 5.1 6.0----30.01- 57.6- 52.5---
1014 9:44 pm N 4.1 6.0----30.01- 57.7- 52.7---
1014 9:42 pm N 5.1 6.0----30.01- 57.6- 52.5---
1014 9:40 pmNNE 5.1 7.0----30.01- 57.6- 52.5---
1014 9:38 pmNNE 6.0 8.0----30.01- 57.6- 52.5---
1014 9:36 pmNNE 6.0 8.0----30.01- 57.4- 52.2---
1014 9:34 pmNNE 7.0 8.0----30.01- 57.4- 52.2---
1014 9:32 pm N 7.0 8.9----30.01- 57.6- 52.2---
1014 9:30 pmNNE 8.0 8.9----30.01- 57.6- 52.3---
1014 9:28 pmNNE 8.0 8.9----30.01- 57.7- 52.5---
1014 9:26 pm N 8.0 8.9----30.01- 57.7- 52.5---
1014 9:24 pm N 7.0 9.9----30.01- 57.6- 52.3---
1014 9:22 pm N 7.0 8.9----30.00- 57.7- 52.7---
1014 9:20 pm N 7.0 8.9----30.01- 57.7- 52.7---
1014 9:18 pm N 5.1 8.0----30.01- 57.7- 52.7---
1014 9:16 pm N 5.1 7.0----30.01- 57.7- 52.5---
1014 9:14 pm N 4.1 5.1----30.00- 57.7- 52.5---
1014 9:12 pm N 2.9 6.0----30.00- 57.7- 52.5---
1014 9:10 pm N 4.1 6.0----30.00- 57.7- 52.3---
1014 9:08 pm N 4.1 7.0----30.00- 57.7- 52.3---
1014 9:06 pm N 5.1 7.0----30.00- 57.9- 52.5---
1014 9:04 pm N 5.1 6.0----30.00- 58.1- 52.7---
1014 9:02 pm N 5.1 6.0----30.00- 58.1- 52.5---
1014 9:00 pm N 4.1 5.1----30.00- 58.1- 52.5---
1014 8:58 pm N 2.9 5.1----30.00- 58.1- 52.5---
1014 8:56 pm N 4.1 5.1----30.00- 58.3- 52.7---
1014 8:54 pm N 4.1 5.1----30.00- 58.3- 52.5---
1014 8:52 pm N 4.1 5.1----30.00- 58.5- 52.7---
1014 8:50 pm N 5.1 6.0----30.00- 58.5- 52.5---
1014 8:48 pmNNE 6.0 7.0----30.00- 58.5- 52.5---
1014 8:46 pm N 5.1 7.0----30.00- 58.5- 52.7---
1014 8:44 pm N 5.1 6.0----30.00- 58.5- 52.7---
1014 8:42 pm N 5.1 6.0----30.00- 58.5- 52.7---
1014 8:40 pm N 5.1 7.0----30.00- 58.5- 52.5---
1014 8:38 pm N 6.0 7.0----30.00- 58.6- 52.7---
1014 8:36 pm N 5.1 7.0----30.00- 58.6- 52.7---
1014 8:34 pm N 5.1 6.0----30.00- 58.6- 52.5---
1014 8:32 pm N 5.1 6.0----30.00- 58.6- 52.7---
1014 8:30 pm N 5.1 6.0----30.00- 58.6- 52.5---
1014 8:28 pm N 5.1 7.0----30.00- 58.6- 52.5---
1014 8:26 pm N 5.1 7.0----30.00- 58.8- 52.7---
1014 8:24 pm N 5.1 6.0----30.00- 58.8- 52.5---
1014 8:22 pm N 5.1 6.0----30.00- 58.8- 52.5---
1014 8:20 pm N 5.1 6.0----30.00- 59.0- 52.5---
1014 8:18 pm N 5.1 6.0----30.00- 59.2- 52.7---
1014 8:16 pm N 5.1 6.0----30.00- 59.2- 52.5---
1014 8:14 pm N 6.0 7.0----30.00- 59.4- 52.7---
1014 8:12 pmNNE 6.0 7.0----30.00- 59.5- 53.1---
1014 8:10 pmNNE 5.1 7.0----29.99- 59.5- 53.2---
1014 8:08 pm N 5.1 6.0----30.00- 59.5- 53.1---
1014 8:06 pm N 5.1 7.0----29.99- 59.4- 52.9---
1014 8:04 pm N 5.1 7.0----29.99- 59.4- 53.1---
1014 8:02 pm N 4.1 5.1----29.99- 59.4- 53.1---
1014 8:00 pm N 2.9 4.1----30.00- 59.4- 53.2---
1014 7:58 pmNNW 1.9 4.1----30.00- 59.4- 53.1---
1014 7:56 pmNNW 2.9 4.1----29.99- 59.4- 52.9---
1014 7:54 pmNNW 4.1 5.1----29.99- 59.4- 52.7---
1014 7:52 pmNNW 2.9 4.1----29.99- 59.5- 52.9---
1014 7:50 pmNNW 2.9 4.1----29.99- 59.7- 53.1---
1014 7:48 pmNNW 1.9 4.1----29.99- 59.9- 53.4---
1014 7:46 pmNNW 1.9 2.9----29.99- 59.9- 53.2---
1014 7:44 pm N 2.9 6.0----29.99- 59.9- 53.1---
1014 7:42 pm N 2.9 5.1----29.99- 60.1- 53.1---
1014 7:40 pmNNE 5.1 6.0----29.99- 60.3- 53.2---
1014 7:38 pmNNE 6.0 7.0----29.99- 60.4- 53.6---
1014 7:36 pmNNE 5.1 6.0----29.98- 60.4- 53.8---
1014 7:34 pmNNE 5.1 6.0----29.98- 60.3- 53.8---
1014 7:32 pmNNE 4.1 5.1----29.98- 60.1- 53.4---
1014 7:30 pmNNE 4.1 5.1----29.98- 60.1- 53.4---
1014 7:28 pmNNE 4.1 4.1----29.98- 60.1- 53.6---
1014 7:26 pmNNE 2.9 5.1----29.98- 60.1- 54.0---
1014 7:24 pm N 1.0 1.9----29.98- 60.1- 54.0---
1014 7:22 pm- 0.0 1.9----29.98- 60.1- 53.8---
1014 7:20 pm- 0.0 1.0----29.98- 60.3- 53.8---
1014 7:18 pm- 0.0 1.0----29.98- 60.3- 53.6---
1014 7:16 pm- 0.0 1.0----29.98- 60.4- 53.8---
1014 7:14 pm- 0.0 1.9----29.97- 60.6- 54.0---
1014 7:12 pm- 0.0 1.0----29.97- 60.8- 53.6---
1014 7:10 pm- 0.0 1.0----29.97- 60.8- 53.6---
1014 7:08 pm- 0.0 1.9----29.97- 61.0- 53.8---
1014 7:06 pmNNE 1.9 4.1----29.97- 61.2- 54.0---
1014 7:04 pm NE 1.9 4.1----29.97- 61.3- 54.1---
1014 7:02 pmNNE 2.9 4.1----29.98- 61.3- 54.1---
1014 7:00 pm N 1.9 2.9----29.97- 61.3- 54.0---
1014 6:58 pm N 2.9 4.1----29.97- 61.3- 54.1---
1014 6:56 pm N 4.1 5.1----29.97- 61.3- 54.1---
1014 6:54 pm N 4.1 5.1----29.97- 61.2- 54.1---
1014 6:52 pm N 4.1 6.0----29.97- 61.2- 54.1---
1014 6:50 pm NW 5.1 7.0----29.97- 61.0- 54.0---
1014 6:48 pm NW 7.0 8.9----29.97+0.01 60.8- 54.0---
1014 6:46 pm NW 6.0 7.0----29.96- 60.8- 54.1---
1014 6:44 pm NW 6.0 8.0----29.96- 60.6- 54.0---
1014 6:42 pmNNW 7.0 8.9----29.96- 60.6- 53.8---
1014 6:40 pmNNW 6.0 8.9----29.96- 60.6- 54.0---
1014 6:38 pm NW 5.1 7.0----29.96- 60.6- 54.1---
1014 6:36 pmWNW 7.0 9.9----29.96- 60.8- 54.1---
1014 6:34 pmWNW 8.9 12.0----29.96- 60.8- 54.3---
1014 6:32 pmWNW 8.9 11.1----29.96- 60.8- 54.3---
1014 6:30 pmWNW 8.9 12.0----29.96- 61.0- 54.5---
1014 6:28 pmWNW 8.9 9.9----29.96- 61.0- 54.5---
1014 6:26 pm W 8.9 11.1----29.96- 61.2- 54.5---
1014 6:24 pm W 9.9 12.0----29.96- 61.2- 54.3---
1014 6:22 pm W 11.1 12.0----29.96- 61.2- 54.3---
1014 6:20 pm W 9.9 12.0----29.95- 61.2- 54.1---
1014 6:18 pm W 9.9 12.0----29.95- 61.3- 54.1---
1014 6:16 pm W 11.1 12.0----29.95- 61.3- 54.5---
1014 6:14 pm W 9.9 12.0----29.95- 61.2- 54.5---
1014 6:12 pm W 9.9 12.0----29.95- 61.2- 54.3---
1014 6:10 pm W 12.0 13.0----29.95- 61.0- 54.1---
1014 6:08 pm W 13.0 15.0----29.95- 61.0- 54.0---
1014 6:06 pm W 12.0 14.0----29.95- 61.0- 54.1---
1014 6:04 pmWNW 11.1 13.0----29.95- 61.2- 54.3---
1014 6:02 pmWNW 9.9 12.0----29.95- 61.3- 54.7---
1014 6:00 pm W 9.9 11.1----29.95- 61.3- 54.7---
1014 5:58 pm W 9.9 12.0----29.95- 61.2- 54.3---
1014 5:56 pm W 11.1 13.0----29.95- 61.3- 54.5---
1014 5:54 pm W 11.1 13.0----29.95- 61.2- 54.3---
1014 5:52 pm W 11.1 13.0----29.95- 61.3- 54.3---
1014 5:50 pm W 12.0 15.0----29.95- 61.3- 54.3---
1014 5:48 pm W 12.0 15.9----29.95-0.01 61.3- 54.3---
1014 5:46 pm W 11.1 14.0----29.95- 61.3- 54.5---
1014 5:44 pm W 11.1 13.0----29.95- 61.5- 54.7---
1014 5:42 pm W 9.9 14.0----29.95- 61.3- 54.3---
1014 5:40 pm W 13.0 15.9----29.95- 61.5- 54.3---
1014 5:38 pm W 13.0 15.0----29.95- 61.2- 54.0---
1014 5:36 pm W 13.0 15.0----29.95- 61.2- 53.8---
1014 5:34 pm W 13.0 15.0----29.95- 61.3- 54.0---
1014 5:32 pm W 13.0 15.9----29.95- 61.3- 54.1---
1014 5:30 pm W 12.0 15.0----29.95- 61.3- 54.1---
1014 5:28 pm W 14.0 15.9----29.95- 61.3- 54.0---
1014 5:26 pm W 13.0 15.0----29.95- 61.5- 54.1---
1014 5:24 pm W 13.0 15.0----29.95- 61.3- 54.1---
1014 5:22 pm W 14.0 15.9----29.95- 61.3- 54.1---
1014 5:20 pm W 13.0 15.9----29.95- 61.2- 54.0---
1014 5:18 pm W 13.0 15.9----29.95- 61.5- 54.3---
1014 5:16 pm W 13.0 15.9----29.95- 61.5- 54.3---
1014 5:14 pm W 15.0 18.1----29.95- 61.3- 54.0---
1014 5:12 pm W 13.0 15.9----29.95- 61.5- 54.0---
1014 5:10 pm W 14.0 15.9----29.95- 61.7- 54.0---
1014 5:08 pm W 11.1 14.0----29.95- 61.7- 54.5---
1014 5:06 pm W 12.0 14.0----29.95- 61.7- 54.3---
1014 5:04 pm W 14.0 15.9----29.95- 61.7- 54.3---
1014 4:56 pm W 14.0 15.9----29.95- 61.7- 54.0---
1014 4:54 pm W 13.0 15.9----29.95- 61.9- 54.3---
1014 4:52 pm W 13.0 15.9----29.95- 61.7- 54.3---
1014 4:50 pm W 14.0 17.1----29.95- 61.7- 54.1---
1014 4:48 pm W 14.0 15.9----29.95-0.01 61.7- 54.0---
1014 4:46 pm W 15.0 17.1----29.95- 61.7- 53.6---
1014 4:44 pm W 13.0 15.9----29.95- 61.9- 54.3---
1014 4:42 pm W 15.0 18.1----29.95- 61.7- 53.8---
1014 4:40 pm W 14.0 15.9----29.95- 61.9- 54.0---
1014 4:38 pm W 14.0 15.9----29.95- 62.1- 54.3---
1014 4:36 pm W 12.0 15.0----29.95- 62.1- 54.3---
1014 4:34 pm W 12.0 13.0----29.95- 62.2- 54.5---
1014 4:32 pm W 15.0 18.1----29.95- 61.9- 54.0---
1014 4:30 pm W 13.0 15.0----29.95- 62.1- 54.1---
1014 4:28 pm W 13.0 15.0----29.95- 62.2- 54.1---
1014 4:26 pm W 13.0 15.9----29.95- 62.2- 54.1---
1014 4:24 pm W 13.0 15.0----29.95- 62.2- 54.0---
1014 4:22 pm W 12.0 15.9----29.95- 62.2- 54.0---
1014 4:20 pm W 13.0 15.0----29.95- 62.4- 54.5---
1014 4:18 pm W 12.0 14.0----29.95- 62.4- 54.3---
1014 4:16 pm W 11.1 13.0----29.95- 62.4- 54.5---
1014 4:14 pm W 13.0 15.9----29.95- 62.2- 54.1---
1014 4:12 pm W 12.0 14.0----29.95- 62.2- 54.3---
1014 4:10 pm W 14.0 15.9----29.95- 62.2- 53.8---
1014 4:08 pm W 9.9 15.0----29.95- 62.4- 54.7---
1014 4:06 pm W 12.0 14.0----29.95- 62.4- 53.8---
1014 4:04 pm W 11.1 13.0----29.95- 62.4- 54.7---
1014 4:02 pm W 12.0 14.0----29.96- 62.4- 53.8---
1014 4:00 pm W 11.1 14.0----29.95- 62.6- 54.1---
1014 3:58 pm W 11.1 13.0----29.95- 62.4- 54.1---
1014 3:56 pm W 12.0 14.0----29.96- 62.2- 53.6---
1014 3:54 pm W 12.0 15.0----29.96- 62.2- 53.8---
1014 3:52 pm W 11.1 15.0----29.95- 62.2- 53.8---
1014 3:50 pm W 9.9 13.0----29.96- 62.4- 54.3---
1014 3:48 pm W 12.0 15.0----29.96-0.03 62.2- 54.1---
1014 3:46 pm W 12.0 14.0----29.95- 62.2- 53.8---
1014 3:44 pm W 12.0 15.0----29.96- 62.2- 53.6---
1014 3:42 pm W 12.0 14.0----29.95- 62.2- 54.0---
1014 3:40 pm W 12.0 14.0----29.95- 62.4- 54.0---
1014 3:38 pm W 13.0 15.0----29.96- 62.2- 54.0---
1014 3:36 pm W 13.0 15.0----29.96- 62.2- 54.0---
1014 3:34 pm W 13.0 15.0----29.96- 62.2- 53.8---
1014 3:32 pm W 13.0 15.0----29.96- 62.1- 53.6---
1014 3:30 pm W 13.0 15.0----29.96- 62.1- 53.8---
1014 3:28 pm W 13.0 15.0----29.96- 62.1- 54.0---
1014 3:26 pm W 13.0 15.0----29.96- 62.1- 53.8---
1014 3:24 pm W 14.0 15.9----29.96- 62.1- 53.8---
1014 3:22 pm W 15.0 17.1----29.96- 61.9- 53.6---
1014 3:20 pm W 14.0 15.9----29.96- 61.7- 53.4---
1014 3:18 pm W 15.0 18.1----29.96- 61.7- 53.4---
1014 3:16 pm W 14.0 17.1----29.96- 61.9- 53.4---
1014 3:14 pm W 13.0 15.9----29.96- 62.1- 54.0---
1014 3:12 pm W 15.0 18.1----29.96- 62.1- 53.8---
1014 3:10 pm W 14.0 18.1----29.96- 62.1- 54.1---
1014 3:08 pm W 15.0 20.0----29.96- 61.7- 53.6---
1014 3:06 pm W 15.0 18.1----29.96- 61.9- 53.8---
1014 3:04 pm W 15.9 18.1----29.96- 61.9- 53.6---
1014 3:02 pm W 15.0 19.0----29.96- 61.9- 53.6---
1014 3:00 pm W 14.0 18.1----29.96- 62.2- 54.1---
1014 2:58 pm W 14.0 18.1----29.96- 62.1- 54.1---
1014 2:56 pm W 13.0 15.9----29.96- 62.1- 54.0---
1014 2:54 pm W 15.0 18.1----29.96- 62.1- 54.1---
1014 2:52 pm W 15.9 18.1----29.96- 61.9- 53.8---
1014 2:50 pm W 15.0 19.0----29.96- 61.7- 53.8---
1014 2:48 pm W 15.9 19.0----29.96-0.03 61.7- 53.6---
1014 2:46 pm W 17.1 19.0----29.96- 61.7- 53.6---
1014 2:44 pm W 15.9 19.0----29.96- 61.7- 53.6---
1014 2:42 pm W 17.1 19.0----29.96- 61.9- 54.0---
1014 2:40 pm W 15.0 19.0----29.96- 61.9- 53.8---
1014 2:38 pm W 15.9 20.0----29.96- 62.1- 53.8---
1014 2:36 pm W 14.0 18.1----29.96- 61.7- 53.4---
1014 2:34 pm W 15.9 19.0----29.96- 61.7- 53.2---
1014 2:32 pm W 15.0 19.0----29.96- 61.9- 53.6---
1014 2:30 pm W 15.9 18.1----29.96- 62.1- 53.8---
1014 2:28 pm W 15.0 18.1----29.96- 62.2- 53.8---
1014 2:26 pm W 15.9 18.1----29.96- 62.1- 53.4---
1014 2:24 pm W 15.9 18.1----29.96- 62.1- 53.6---
1014 2:22 pm W 14.0 17.1----29.96- 62.1- 53.6---
1014 2:20 pm W 15.0 18.1----29.96- 62.2- 53.8---
1014 2:18 pm W 14.0 15.9----29.96- 62.2- 54.1---
1014 2:16 pm W 14.0 18.1----29.96- 62.2- 53.8---
1014 2:14 pm W 14.0 15.9----29.96- 62.2- 54.0---
1014 2:12 pm W 15.0 17.1----29.97- 62.1- 53.8---
1014 2:10 pm W 13.0 17.1----29.96- 62.2- 54.0---
1014 2:08 pm W 13.0 15.9----29.96- 62.2- 53.8---
1014 2:06 pm W 12.0 15.0----29.96- 62.2- 54.0---
1014 2:04 pm W 14.0 18.1----29.97- 62.1- 53.4---
1014 2:02 pm W 14.0 15.9----29.97- 62.2- 53.6---
1014 2:00 pm W 14.0 17.1----29.97- 62.4- 53.8---
1014 1:58 pm W 12.0 15.0----29.97- 62.6- 54.3---
1014 1:56 pm W 13.0 17.1----29.97- 62.4- 54.0---
1014 1:54 pm W 11.1 13.0----29.97- 62.6- 54.3---
1014 1:52 pm W 13.0 15.0----29.97- 62.4- 54.5---
1014 1:50 pm W 12.0 14.0----29.97- 62.4- 54.3---
1014 1:48 pm W 13.0 15.9----29.97-0.03 62.4- 54.0---
1014 1:46 pm W 14.0 15.9----29.97- 62.2- 53.8---
1014 1:44 pmWSW 13.0 15.9----29.97- 62.4- 54.1---
1014 1:42 pm W 12.0 15.0----29.97- 62.6- 54.0---
1014 1:40 pm W 13.0 15.9----29.97- 62.4- 54.0---
1014 1:38 pm W 12.0 14.0----29.97- 62.4- 54.0---
1014 1:36 pm W 12.0 15.0----29.97- 62.4- 53.8---
1014 1:34 pmWSW 9.9 12.0----29.97- 62.8- 54.0---
1014 1:32 pmWSW 11.1 15.0----29.97- 62.8- 54.0---
1014 1:30 pmWSW 9.9 12.0----29.97- 62.8- 54.1---
1014 1:28 pmWSW 9.9 13.0----29.98- 62.8- 54.1---
1014 1:26 pmWSW 11.1 13.0----29.98- 62.8- 54.3---
1014 1:24 pm W 9.9 12.0----29.98- 62.8- 54.5---
1014 1:22 pm W 12.0 15.0----29.98- 62.8- 53.6---
1014 1:20 pmWSW 11.1 13.0----29.98- 62.8- 54.0---
1014 1:18 pm W 9.9 13.0----29.98- 62.8- 53.8---
1014 1:16 pmWSW 9.9 12.0----29.98- 62.8- 54.1---
1014 1:14 pmWSW 9.9 11.1----29.98- 62.8- 54.0---
1014 1:12 pmWSW 8.9 11.1----29.98- 62.8- 54.0---
1014 1:10 pmWSW 8.9 11.1----29.98- 62.8- 54.1---
1014 1:08 pmWSW 9.9 12.0----29.98- 62.8- 54.1---
1014 1:06 pmWSW 8.0 11.1----29.98- 62.8- 54.0---
1014 1:04 pmWSW 9.9 12.0----29.98- 62.8- 53.8---
1014 1:02 pmWSW 8.0 9.9----29.98- 63.0- 54.3---
1014 1:00 pmWSW 8.0 9.9----29.98- 62.8- 54.1---
101412:58 pmWSW 8.0 9.9----29.98- 62.6- 54.1---
101412:56 pmWSW 8.0 9.9----29.98- 62.8- 54.1---
101412:54 pmWSW 8.0 9.9----29.98- 62.8- 53.8---
101412:52 pmWSW 8.9 11.1----29.98- 62.6- 54.0---
101412:50 pm SW 8.9 9.9----29.98- 62.4- 54.3---
101412:48 pmWSW 8.0 9.9----29.98-0.01 62.4- 54.0---
101412:46 pmWSW 8.0 12.0----29.98- 62.4- 54.3---
101412:44 pm SW 9.9 11.1----29.99- 62.1- 53.6---
101412:42 pm SW 9.9 13.0----29.99- 62.1- 53.4---
101412:40 pm SW 9.9 13.0----29.98- 62.1- 53.4---
101412:38 pm SW 8.9 12.0----29.99- 62.2- 54.0---
101412:36 pm SW 9.9 12.0----29.99- 62.2- 53.8---
101412:34 pmWSW 9.9 12.0----29.99- 62.2- 53.6---
101412:32 pm SW 9.9 11.1----29.99- 62.2- 54.1---
101412:30 pm SW 9.9 12.0----29.99- 62.1- 53.4---
101412:28 pm SW 8.9 11.1----29.99- 62.2- 54.0---
101412:26 pmWSW 8.0 9.9----29.99- 62.2- 54.1---
101412:24 pm SW 8.0 9.9----29.99- 62.1- 54.5---
101412:22 pm SW 8.0 9.9----29.99- 61.7- 53.8---
101412:20 pm SW 8.0 8.9----29.99- 61.7- 53.8---
101412:18 pm SW 8.0 8.9----29.99- 61.7- 53.6---
101412:16 pm SW 8.0 8.9----29.99- 61.7- 53.6---
101412:14 pm SW 8.0 9.9----29.99- 61.9- 54.0---
101412:12 pm SW 8.0 9.9----29.99- 61.7- 53.6---
101412:10 pm SW 8.0 8.9----29.99- 61.7- 53.6---
101412:08 pm SW 8.0 8.9----29.99- 61.7- 53.8---
101412:06 pm SW 8.0 8.9----29.99- 61.7- 53.4---
101412:04 pm SW 7.0 8.9----29.99- 61.7- 53.4---
101412:02 pm SW 8.0 8.9----29.99- 61.7- 53.4---
101412:00 pm SW 8.0 9.9----29.99- 61.7- 53.8---
101411:58 am SW 8.0 9.9----29.99- 61.7- 53.8---
101411:56 am SW 8.9 8.9----29.99- 61.7- 53.6---
101411:54 am SW 8.0 9.9----29.99- 61.7- 53.6---
101411:52 am SW 7.0 8.9----29.99- 61.7- 53.6---
101411:50 am SW 7.0 8.0----29.99- 61.9- 53.6---
101411:48 am SW 7.0 8.0----29.99+0.01 61.7- 53.8---
101411:46 amSSW 8.0 8.9----29.99- 61.9- 53.8---
101411:44 am SW 8.0 9.9----29.99- 61.9- 54.1---
101411:42 am SW 7.0 8.9----29.99- 61.9- 54.1---
101411:40 amWSW 7.0 8.0----29.99- 61.9- 54.0---
101411:38 am SW 7.0 8.9----29.99- 61.9- 54.0---
101411:36 am SW 7.0 8.9----29.99- 61.9- 53.6---
101411:34 am SW 7.0 8.9----29.99- 62.1- 53.8---
101411:32 amSSW 7.0 8.0----29.99- 62.1- 53.6---
101411:30 amSSW 7.0 8.0----29.99- 62.2- 53.4---
101411:28 amSSW 6.0 7.0----29.99- 62.2- 53.4---
101411:26 amSSW 7.0 8.0----29.99- 62.2- 53.2---
101411:24 amSSW 6.0 8.0----29.99- 62.4- 53.2---
101411:22 amSSW 5.1 6.0----29.99- 62.4- 52.9---
101411:20 amSSW 5.1 6.0----29.99- 62.8- 52.9---
101411:18 amSSW 5.1 6.0----29.99- 62.8- 52.7---
101411:16 am S 4.1 6.0----29.99- 63.1- 53.2---
101411:14 am S 2.9 5.1----29.99- 63.7- 54.3---
101411:12 am S 1.9 4.1----29.99- 63.5- 54.0---
101411:10 am S 2.9 4.1----29.99- 63.3- 54.1---
101411:08 amSSW 4.1 5.1----29.99- 62.8- 54.0---
101411:06 amSSW 4.1 5.1----29.99- 62.4- 53.2---
101411:04 amSSW 5.1 6.0----29.99- 62.6- 53.1---
101411:02 amSSW 5.1 7.0----29.99- 62.6- 52.9---
101411:00 amSSW 4.1 5.1----29.99- 62.8- 53.1---
101410:58 am S 1.0 4.1----29.99- 63.7- 54.5---
101410:56 am- 0.0 1.9----29.99- 63.5- 55.0---
101410:54 amESE 1.0 1.9----29.99- 62.8- 54.1---
101410:52 am SE 1.9 2.9----29.99- 62.6- 53.8---
101410:50 am SE 4.1 6.0----29.99- 62.4- 53.6---
101410:48 am SE 4.1 5.1----29.99+0.04 62.4- 53.4---
101410:46 amSSE 2.9 4.1----29.99- 62.6- 53.8---
101410:44 amSSW 1.9 2.9----29.99- 62.4- 54.0---
101410:42 am SW 1.9 4.1----29.99- 62.2- 54.0---
101410:40 am SW 1.9 4.1----29.99- 62.2- 54.0---
101410:38 am SW 2.9 5.1----29.99- 62.2- 53.8---
101410:36 am SW 4.1 5.1----29.99- 62.1- 53.4---
101410:34 am SW 4.1 5.1----29.99- 62.1- 53.4---
101410:32 amSSW 2.9 4.1----29.99- 62.2- 54.1---
101410:30 am SW 2.9 4.1----29.99- 62.1- 54.0---
101410:28 am SW 1.9 2.9----29.99- 62.1- 53.6---
101410:26 am SW 2.9 4.1----29.99- 62.1- 53.8---
101410:24 am SW 2.9 4.1----29.99- 62.1- 53.8---
101410:22 am SW 2.9 4.1----29.99- 62.1- 53.8---
101410:20 am SW 2.9 4.1----29.99- 62.1- 54.0---
101410:18 am SW 4.1 4.1----29.99- 62.1- 54.1---
101410:16 amSSW 2.9 4.1----29.99- 62.1- 53.8---
101410:14 amSSW 2.9 4.1----29.99- 62.1- 54.1---
101410:12 amSSW 2.9 4.1----29.99- 62.1- 54.0---
101410:10 am SW 2.9 5.1----29.99- 62.1- 54.3---
101410:08 am SW 2.9 4.1----29.99- 62.1- 53.8---
101410:06 am SW 2.9 4.1----29.99- 62.1- 53.8---
101410:04 am SW 4.1 4.1----29.99- 61.9- 53.6---
101410:02 am SW 4.1 5.1----29.99- 61.9- 53.8---
101410:00 am SW 4.1 4.1----29.99- 62.1- 53.8---
1014 9:58 amSSW 2.9 4.1----29.99- 62.1- 53.8---
1014 9:56 am SW 2.9 4.1----29.99- 62.2- 54.0---
1014 9:54 am SW 1.9 2.9----29.99- 62.1- 53.6---
1014 9:52 am SW 1.9 2.9----29.99- 62.1- 53.6---
1014 9:50 am SW 1.9 2.9----29.99- 62.1- 54.1---
1014 9:48 amWSW 1.9 2.9----29.99+0.05 62.1- 53.4---
1014 9:46 amWSW 2.9 4.1----29.99- 62.1- 53.4---
1014 9:44 amWSW 2.9 4.1----29.99- 62.1- 53.8---
1014 9:42 amWSW 2.9 4.1----29.99- 62.1- 53.6---
1014 9:40 am SW 2.9 4.1----29.99- 62.1- 53.6---
1014 9:38 amWSW 2.9 4.1----29.99- 62.1- 53.4---
1014 9:36 am SW 1.9 2.9----29.99- 62.2- 53.8---
1014 9:34 am SW 1.0 1.9----29.99- 62.4- 53.6---
1014 9:32 am- 0.0 1.9----29.99- 62.6- 53.6---
1014 9:30 am- 0.0 1.0----29.99- 62.6- 53.6---
1014 9:28 am- 0.0 1.0----29.99- 62.6- 53.8---
1014 9:26 am- 0.0 1.0----29.98- 62.4- 54.0---
1014 9:24 am- 0.0 1.0----29.98- 62.2- 54.0---
1014 9:22 am- 0.0 1.0----29.98- 62.1- 53.6---
1014 9:20 am- 0.0 1.9----29.98- 61.9- 53.6---
1014 9:18 am W 1.9 2.9----29.98- 61.9- 53.8---
1014 9:16 am W 2.9 6.0----29.98- 61.7- 54.0---
1014 9:14 amWSW 2.9 4.1----29.98- 61.7- 54.5---
1014 9:12 am SW 2.9 4.1----29.98- 61.7- 54.5---
1014 9:10 am SW 2.9 4.1----29.98- 61.7- 54.5---
1014 9:08 am SW 2.9 4.1----29.98- 61.5- 54.5---
1014 9:06 am SW 2.9 4.1----29.98- 61.7- 54.7---
1014 9:04 am SW 4.1 5.1----29.98- 61.5- 54.5---
1014 9:02 amSSW 4.1 6.0----29.98- 61.7- 54.7---
1014 9:00 amSSW 4.1 5.1----29.98- 61.7- 54.5---
1014 8:58 amSSW 4.1 5.1----29.97- 61.9- 54.7---
1014 8:56 am SW 4.1 5.1----29.97- 61.7- 54.3---
1014 8:54 am SW 2.9 5.1----29.97- 62.1- 54.5---
1014 8:52 amWSW 1.0 1.9----29.97- 62.1- 54.1---
1014 8:50 amWSW 1.9 1.9----29.97- 62.2- 54.0---
1014 8:48 am SW 1.9 1.9----29.97+0.04 62.2- 54.0---
1014 8:46 am- 0.0 1.0----29.97- 62.6- 54.3---
1014 8:44 am- 0.0 1.0----29.97- 62.6- 54.3---
1014 8:42 am- 0.0 1.0----29.97- 62.4- 54.1---
1014 8:40 am- 0.0 1.0----29.97- 62.2- 53.8---
1014 8:38 am- 0.0 1.9----29.97- 62.2- 53.8---
1014 8:36 am- 0.0 1.0----29.97- 62.1- 53.8---
1014 8:34 am- 0.0 1.0----29.97- 62.1- 53.8---
1014 8:32 am- 0.0 1.9----29.97- 61.9- 53.8---
1014 8:30 amNNE 1.0 1.9----29.97- 62.1- 54.1---
1014 8:28 am- 0.0 1.0----29.96- 61.9- 53.8---
1014 8:26 am- 0.0 1.0----29.96- 61.9- 54.0---
1014 8:24 am- 0.0 1.0----29.96- 61.7- 54.0---
1014 8:22 am- 0.0 1.0----29.96- 61.9- 54.3---
1014 8:20 am- 0.0 1.9----29.96- 61.7- 54.1---
1014 8:18 am NE 1.9 1.9----29.96- 61.7- 54.0---
1014 8:16 amNNE 1.9 4.1----29.96- 61.7- 54.0---
1014 8:14 am N 1.9 2.9----29.96- 61.3- 54.0---
1014 8:12 am N 1.0 1.9----29.96- 61.3- 54.1---
1014 8:10 am N 1.9 2.9----29.96- 61.3- 54.3---
1014 8:08 am N 1.9 2.9----29.96- 61.3- 54.5---
1014 8:06 am N 1.9 2.9----29.96- 61.5- 54.7---
1014 8:04 am NE 1.9 4.1----29.96- 61.3- 54.1---
1014 8:02 am NE 2.9 4.1----29.96- 61.2- 54.1---
1014 8:00 amNNE 2.9 4.1----29.96- 61.2- 54.5---
1014 7:58 amNNE 1.9 2.9----29.96- 61.2- 54.5---
1014 7:56 am NE 1.9 2.9----29.96- 61.0- 54.5---
1014 7:54 amENE 1.9 1.9----29.96- 61.2- 54.9---
1014 7:52 am NE 1.0 1.9----29.96- 61.0- 54.9---
1014 7:50 am NE 1.0 1.9----29.96- 61.2- 55.2---

Solar Radiation Conditions at CPXC1 as of
(8:02 am PDT)
1502 GMT on 10/15/2018:
     

Click on the graph icon in the table below to see a time series plot of the last five days of that observation.

5-day plot - Short Wave Radiation 1Short Wave Radiation 1 (SRAD1): 56.8watts/meter2
Previous observations
5-day plot - Short Wave Radiation 1 5-day plot - Short Wave Radiation 2 5-day plot - Long Wave Radiation
MM   DD    TIME
(PDT)
  SRAD1
w/m2
   SWRAD
w/m2
    LWRAD
w/m2
10157:50 am 47.4--
10157:40 am 28.6--
10157:30 am 23.9--
10157:20 am 14.5--
10157:10 am 9.8--
10157:00 am 5.1--
10156:50 am 5.1--
10156:40 am 5.1--
10156:30 am 5.1--
10156:20 am 5.1--
10156:10 am 5.1--
10155:58 am 5.1--
10155:48 am 5.1--
10155:38 am 5.1--
10155:28 am 0.4--
10155:18 am 0.4--
10155:08 am 0.4--
10154:58 am 0.4--
10154:48 am 5.1--
10154:38 am 0.4--
10154:28 am 0.4--
10154:18 am 0.4--
10154:08 am 0.4--
10153:56 am 5.1--
10153:46 am 5.1--
10153:36 am 5.1--
10153:26 am 0.4--
10153:16 am 0.4--
10153:06 am 0.4--
10152:56 am 0.4--
10152:46 am 0.4--
10152:36 am 0.4--
10152:26 am 0.4--
10152:16 am 0.4--
10152:06 am 0.4--
10151:54 am 0.4--
10151:44 am 0.4--
10151:34 am 0.4--
10151:24 am 0.4--
10151:14 am 0.4--
10151:04 am 0.4--
101512:54 am 5.1--
101512:44 am 0.4--
101512:34 am 0.4--
101512:24 am 0.4--
101512:14 am 5.1--
101512:04 am 5.1--
101411:52 pm 0.4--
101411:42 pm 0.4--
101411:32 pm 0.4--
101411:22 pm 5.1--
101411:12 pm 0.4--
101411:02 pm 0.4--
101410:52 pm 0.4--
101410:42 pm 0.4--
101410:32 pm 0.4--
101410:22 pm 0.4--
101410:12 pm 5.1--
101410:02 pm 0.4--
10149:50 pm 0.4--
10149:40 pm 0.4--
10149:30 pm 0.4--
10149:20 pm 5.1--
10149:10 pm 0.4--
10149:00 pm 0.4--
10148:50 pm 0.4--
10148:40 pm 0.4--
10148:30 pm 0.4--
10148:20 pm 0.4--
10148:10 pm 5.1--
10148:00 pm 0.4--
10147:48 pm 0.4--
10147:38 pm 5.1--
10147:28 pm 5.1--
10146:58 pm 0.4--
10146:48 pm 5.1--
10146:38 pm 0.4--
10146:28 pm 9.8--
10146:18 pm 19.2--
10146:08 pm 19.2--
10145:58 pm 61.5--
10145:46 pm 103.8--
10145:36 pm 136.7--
10145:26 pm 169.7--
10145:16 pm 202.6--
10145:06 pm 240.2--
10144:56 pm 273.1--
10144:46 pm 310.7--
10144:36 pm 353.0--
10144:26 pm 395.3--
10144:16 pm 437.6--
10144:06 pm 479.9--
10143:56 pm 522.2--
10143:44 pm 573.9--
10143:34 pm 620.9--
10143:24 pm 658.6--
10143:14 pm 696.2--
10143:04 pm 729.1--
10142:54 pm 766.7--
10142:44 pm 790.2--
10142:34 pm 813.7--
10142:24 pm 837.2--
10142:14 pm 856.0--
10142:04 pm 865.4--
10141:52 pm 884.2--
10141:42 pm 888.9--
10141:32 pm 893.6--
10141:22 pm 893.6--
10141:12 pm 898.3--
10141:02 pm 898.3--
101412:52 pm 898.3--
101412:42 pm 893.6--
101412:32 pm 884.2--
101412:22 pm 879.5--
101412:12 pm 870.1--
101412:00 pm 856.0--
101411:50 am 846.6--
101411:40 am 832.5--
101411:30 am 809.0--
101411:20 am 790.2--
101411:10 am 790.2--
101411:00 am 766.7--
101410:50 am 395.3--
101410:40 am 334.2--
101410:30 am 320.1--
101410:20 am 282.5--
101410:10 am 240.2--
10149:58 am 230.8--
10149:48 am 193.2--
10149:38 am 197.9--
10149:28 am 193.2--
10149:18 am 174.4--
10149:08 am 174.4--
10148:58 am 160.3--
10148:48 am 141.4--
10148:38 am 136.7--
10148:28 am 127.3--
10148:18 am 99.1--
10148:08 am 75.6--
10147:56 am 56.8--

Description of Measurements

Links which are specific to this station are listed below:

Real Time Data in tabular form for the last forty-five days.

Historical Data & Climatic Summaries for quality controlled data for the current month, previous months, and previous years.